Palmese

Palmese, ipotesi ripescaggio praticabile ma molto complessa

Conferenza stampa parecchio articolata quella tenutasi dal presidente della Palmese Francesco Sergi nella serata di martedì 21 giugno all’interno della sala stampa del Giuseppe Lopresti per l’occasione affollatissima. Il numero uno della società neroverde, dopo...

Palmese, se sarà o meno ripescaggio lo comunicherà la società

Terminata la stagione agonistica in casa Palmese si cerca di capire quale sarà il futuro campionato. E si perché, nonostante la logica dovrebbe farla ripartite dalla Prima Categoria, non sembrerebbe essere così viste le...

Palmese, il futuro resta roseo e ambizioso

In casa Palmese è ancora tanta l'amarezza per l'eliminazione ai playoff ad opera dell'Ardore, ma questa stagione non è da buttare. Facendo una cronistoria partendo dalla scorsa estate, il calcio a Palmi sembrava essere...

L’Ardore batte la Palmese e accede allo spareggio per la Promozione

Al Giuseppe Lopresti di Palmi finisce 1-2 per l'Ardore contro una spenta Palmese la finale play off del girone D di Prima Categoria. Risultato che per gli amaranto vale lo spareggio promozione contro la...

Palmese, sarà l’Ardore il primo ostacolo verso la Promozione

Manca ormai poco per la finale dei play off tra la Palmese e l’Ardore (qualificatosi a spese della Pro Pellaro grazie a un guizzo di Gomez) che andrà in scena sabato 11 giugno al...

Palmese, battuta facilmente la Scillese si aspettano i play off

Quattordicesima affermazione consecutiva per la Palmese che contro la Scillese si impone 8-0. Sfida dal risultato scontato quella andata in scena al Giuseppe Lopresti contro l’ultimissima della classe con la Palmese che, dopo aver trovato...

Palmese, in attesa dei play off si chiude contro la Scillese

Reduce dall’ennesima vittoria la Palmese chiude la stagione regolare (alla Deliese per accedere al campionato di Promozione basterà non perdere in casa col Catona) affrontando al Giuseppe Lopresti la Scillese il cui primo precedente...

Palmese, anche a Taurianova si incamera l’ennesimo successo [FOTO]

Tredicesima affermazione consecutiva per la Palmese che, mettendo a segno la rete numero 100 tra campionato (80) e coppa (20), si impone in casa del Taurianova Academy 0-1. Sfida che aveva ben poco da dire...

Palmese, a Taurianova l’ultima trasferta di campionato

Dopo aver battuto il Bianco per la Palmese arriva la trasferta nella vicina Taurianova per affrontare il Taurianova Academy. All’andata a Palmi finì con un rotondo 2-0 in favore dei neroverdi grazie alle reti di...

Palmese, la forza della muraglia neroverde

Tra i tanti punti di forza della Palmese c'è senz'altro il reparto arretrato. Quando si dice che la difesa è il miglior attacco, non è sempre uno slogan detto per caso, anche se in...

Palmese, Forza 12 [FOTO]

Dodicesima vittoria consecutiva per la Palmese che batte il Bianco 2-0. A dare il là all'ennesimo successo dei neroverdi è Legato che, al minuto 40 di un primo tempo ampiamente dominato, infila il cuoio nel...

Palmese, col Bianco per vincere e divertire

Dopo l’ennesimo successo condito da un nutrito gruzzolo di reti per la Palmese arriva la sfida casalinga contro il Bianco. Sfida che, vista l’inaspettata caduta della capolista Deliese, potrebbe (ipotesi, comunque, molto remota), farla...
DataCasaRisultatiTrasfertaOra
2022-05-29 14:30:0029/05/228 - 0 14:30:0014:30
2022-05-22 14:30:0022/05/220 - 1 14:30:0014:30
2022-05-15 14:30:0015/05/222 - 0 14:30:0014:30
2022-05-08 14:30:0008/05/220 - 6 14:30:0014:30
2022-05-01 14:30:0001/05/227 - 0 14:30:0014:30
2022-04-24 14:30:0024/04/220 - 3 14:30:0014:30
2022-04-16 14:30:0016/04/224 - 0 14:30:0014:30
2022-04-10 14:30:0010/04/220 - 3 14:30:0014:30
2022-04-03 14:30:0003/04/227 - 0 14:30:0014:30
2022-03-27 14:30:0027/03/221 - 0 14:30:0014:30
2022-03-20 14:30:0020/03/220 - 2 14:30:0014:30
2022-03-13 14:30:0013/03/223 - 0 14:30:0014:30
2022-03-06 14:30:0006/03/221 - 2 14:30:0014:30
2022-02-27 14:30:0027/02/224 - 0 14:30:0014:30
2022-02-20 14:30:0020/02/220 - 0 14:30:0014:30
2022-02-13 14:30:0013/02/221 - 4 14:30:0014:30
2022-02-06 14:30:0006/02/222 - 0 14:30:0014:30
2022-01-30 14:30:0030/01/221 - 1 14:30:0014:30
2022-01-23 14:30:0023/01/222 - 0 14:30:0014:30
2021-12-19 14:30:0019/12/210 - 4 14:30:0014:30
2021-12-12 14:30:0012/12/212 - 1 14:30:0014:30
2021-12-05 14:30:0005/12/210 - 0 14:30:0014:30
2021-11-28 14:30:0028/11/213 - 1 14:30:0014:30
2021-11-21 14:30:0021/11/210 - 2 14:30:0014:30
2021-11-14 14:30:0014/11/211 - 1 14:30:0014:30
2021-11-07 15:30:0007/11/211 - 0 15:30:0015:30
2021-10-31 15:30:0031/10/211 - 1 15:30:0015:30
2021-10-24 15:30:0024/10/212 - 1 15:30:0015:30
2021-10-17 15:30:0017/10/210 - 4 15:30:0015:30
2021-10-10 15:30:0010/10/216 - 0 15:30:0015:30
2021-05-23 15:30:0023/05/210 - 2 15:30:0015:30
2021-05-16 15:30:0016/05/211 - 0 15:30:0015:30
2021-05-09 15:30:0009/05/210 - 2 15:30:0015:30
2021-05-02 15:30:0002/05/210 - 1 15:30:0015:30
2021-04-25 15:30:0025/04/212 - 2 15:30:0015:30
2021-04-18 15:30:0018/04/211 - 0 15:30:0015:30
2021-04-11 15:30:0011/04/210 - 1 15:30:0015:30
2021-02-21 15:00:0021/02/21- 15:00:0015:00
2021-02-14 15:00:0014/02/21- 15:00:0015:00
2021-02-07 15:00:0007/02/21- 15:00:0015:00
2021-01-31 15:00:0031/01/21- 15:00:0015:00
2021-01-24 15:00:0024/01/21- 15:00:0015:00
2021-01-10 15:00:0010/01/21- 15:00:0015:00
2021-01-06 15:00:0006/01/21- 15:00:0015:00
2020-12-20 15:00:0020/12/20- 15:00:0015:00
2020-12-13 15:00:0013/12/20- 15:00:0015:00
2020-12-06 15:00:0006/12/20- 15:00:0015:00
2020-11-29 15:00:0029/11/20- 15:00:0015:00
2020-11-25 15:00:0025/11/20- 15:00:0015:00
2020-11-22 15:00:0022/11/20- 15:00:0015:00
2020-11-15 15:00:0015/11/20- 15:00:0015:00
2020-11-08 15:00:0008/11/20- 15:00:0015:00
2020-11-01 15:00:0001/11/20- 15:00:0015:00
2020-10-25 15:00:0025/10/203 - 0 15:00:0015:00
2020-10-21 15:00:0021/10/200 - 1 15:00:0015:00
2020-10-18 15:00:0018/10/207 - 0 15:00:0015:00
2020-10-11 15:00:0011/10/202 - 3 15:00:0015:00
2020-10-04 15:00:0004/10/203 - 1 15:00:0015:00
2020-05-03 15:00:0003/05/20- 15:00:0015:00
2020-04-26 15:00:0026/04/20- 15:00:0015:00
2020-04-19 15:00:0019/04/20- 15:00:0015:00
2020-04-09 15:00:0009/04/20- 15:00:0015:00
2020-04-05 15:00:0005/04/20- 15:00:0015:00
2020-03-29 15:00:0029/03/20- 15:00:0015:00
2020-03-22 14:30:0022/03/20- 14:30:0014:30
2020-03-08 14:30:0008/03/20- 14:30:0014:30
2020-03-01 14:30:0001/03/200 - 0 14:30:0014:30
2020-02-23 14:30:0023/02/204 - 1 14:30:0014:30
2020-02-16 14:30:0016/02/202 - 3 14:30:0014:30
2020-02-09 14:30:0009/02/201 - 0 14:30:0014:30
2020-02-02 14:30:0002/02/203 - 4 14:30:0014:30
2020-01-26 14:30:0026/01/201 - 0 14:30:0014:30
2020-01-19 14:30:0019/01/201 - 0 14:30:0014:30
2020-01-12 14:30:0012/01/201 - 0 14:30:0014:30
2020-01-05 14:30:0005/01/201 - 2 14:30:0014:30
2019-12-22 14:30:0022/12/191 - 4 14:30:0014:30
2019-12-15 14:30:0015/12/192 - 0 14:30:0014:30
2019-12-08 14:30:0008/12/191 - 1 14:30:0014:30
2019-12-01 14:30:0001/12/190 - 2 14:30:0014:30
2019-11-24 14:30:0024/11/190 - 0 14:30:0014:30
2019-11-17 14:30:0017/11/190 - 0 14:30:0014:30
2019-11-10 14:30:0010/11/191 - 0 14:30:0014:30
2019-11-03 14:30:0003/11/192 - 2 14:30:0014:30
2019-10-27 14:30:0027/10/192 - 0 14:30:0014:30
2019-10-20 15:00:0020/10/193 - 2 15:00:0015:00
2019-10-13 15:00:0013/10/193 - 2 15:00:0015:00
2019-10-06 15:00:0006/10/190 - 2 15:00:0015:00
2019-09-29 15:00:0029/09/190 - 0 15:00:0015:00
2019-09-22 15:00:0022/09/191 - 2 15:00:0015:00
2019-09-15 15:00:0015/09/192 - 0 15:00:0015:00
2019-09-08 16:00:0008/09/192 - 4 16:00:0016:00
2019-09-01 15:00:0001/09/194 - 1 15:00:0015:00
2019-05-05 15:00:0005/05/192 - 0 15:00:0015:00
2019-04-28 15:00:0028/04/192 - 1 15:00:0015:00
2019-04-18 15:00:0018/04/191 - 0 15:00:0015:00
2019-04-14 15:00:0014/04/193 - 3 15:00:0015:00
2019-04-07 15:00:0007/04/193 - 2 15:00:0015:00
2019-03-31 15:00:0031/03/192 - 0 15:00:0015:00
2019-03-24 14:30:0024/03/190 - 0 14:30:0014:30
2019-03-17 14:30:0017/03/192 - 0 14:30:0014:30
2019-03-03 14:30:0003/03/191 - 0 14:30:0014:30
2019-02-24 14:30:0024/02/191 - 1 14:30:0014:30
2019-02-17 14:30:0017/02/191 - 1 14:30:0014:30
2019-02-10 14:30:0010/02/191 - 1 14:30:0014:30
2019-02-03 14:30:0003/02/191 - 1 14:30:0014:30
2019-01-27 14:30:0027/01/191 - 2 14:30:0014:30
2019-01-20 14:30:0020/01/190 - 2 14:30:0014:30
2019-01-13 14:30:0013/01/190 - 0 14:30:0014:30
2019-01-06 14:30:0006/01/190 - 1 14:30:0014:30
2018-12-23 14:30:0023/12/182 - 1 14:30:0014:30
2018-12-16 14:30:0016/12/181 - 2 14:30:0014:30
2018-12-12 14:30:0012/12/183 - 0 14:30:0014:30
2018-12-09 14:30:0009/12/181 - 3 14:30:0014:30
2018-12-02 14:30:0002/12/180 - 2 14:30:0014:30
2018-11-25 14:30:0025/11/183 - 0 14:30:0014:30
2018-11-18 14:30:0018/11/181 - 0 14:30:0014:30
2018-11-14 14:30:0014/11/180 - 0 14:30:0014:30
2018-11-11 14:30:0011/11/180 - 1 14:30:0014:30
2018-11-04 14:30:0004/11/182 - 1 14:30:0014:30
2018-10-28 14:30:0028/10/182 - 2 14:30:0014:30
2018-10-21 15:00:0021/10/180 - 0 15:00:0015:00
2018-10-14 15:00:0014/10/180 - 0 15:00:0015:00
2018-10-07 15:00:0007/10/181 - 1 15:00:0015:00
2018-09-30 15:00:0030/09/181 - 0 15:00:0015:00
2018-09-23 15:00:0023/09/180 - 0 15:00:0015:00
2018-09-16 15:00:0016/09/180 - 0 15:00:0015:00
2018-05-06 15:00:0006/05/181 - 0 15:00:0015:00
2018-04-29 15:00:0029/04/180 - 3 15:00:0015:00
2018-04-22 15:00:0022/04/181 - 2 15:00:0015:00
2018-04-15 15:00:0015/04/184 - 4 15:00:0015:00
2018-04-08 15:00:0008/04/181 - 3 15:00:0015:00
2018-03-29 15:00:0029/03/181 - 0 15:00:0015:00
2018-03-25 15:00:0025/03/182 - 0 15:00:0015:00
2018-03-18 14:30:0018/03/181 - 0 14:30:0014:30
2018-03-04 14:30:0004/03/181 - 1 14:30:0014:30
2018-02-25 14:30:0025/02/183 - 3 14:30:0014:30
2018-02-18 14:30:0018/02/180 - 0 14:30:0014:30
2018-02-11 14:30:0011/02/183 - 0 14:30:0014:30
2018-02-04 14:30:0004/02/181 - 0 14:30:0014:30
2018-01-28 14:30:0028/01/181 - 2 14:30:0014:30
2018-01-21 14:30:0021/01/182 - 1 14:30:0014:30
2018-01-14 14:30:0014/01/180 - 0 14:30:0014:30
2018-01-07 14:30:0007/01/181 - 0 14:30:0014:30
2017-12-17 14:30:0017/12/171 - 0 14:30:0014:30
2017-12-10 14:30:0010/12/172 - 1 14:30:0014:30
2017-12-03 14:30:0003/12/173 - 0 14:30:0014:30
2017-11-26 14:30:0026/11/171 - 1 14:30:0014:30
2017-11-19 14:30:0019/11/173 - 1 14:30:0014:30
2017-11-12 14:30:0012/11/172 - 4 14:30:0014:30
2017-11-05 14:30:0005/11/173 - 1 14:30:0014:30
2017-11-01 14:30:0001/11/172 - 3 14:30:0014:30
2017-10-29 14:30:0029/10/173 - 1 14:30:0014:30
2017-10-22 15:00:0022/10/173 - 3 15:00:0015:00
2017-10-15 15:00:0015/10/171 - 1 15:00:0015:00
2017-10-08 15:00:0008/10/172 - 2 15:00:0015:00
2017-10-01 15:00:0001/10/172 - 2 15:00:0015:00
2017-09-24 15:00:0024/09/171 - 0 15:00:0015:00
2017-09-17 15:00:0017/09/172 - 1 15:00:0015:00
2017-09-10 15:00:0010/09/173 - 1 15:00:0015:00
2017-09-03 16:00:0003/09/171 - 2 16:00:0016:00